Custer, SD

12:47 PM MST on February 18, 2018 (GMT -0700)
Custer County

Weather History for KCUT - August, 2014

Change the Weather History Date:

Monday, August 11, 2014

  Actual Average Record
Temperature  
Mean Temperature 61 °F 65 °F  
Max Temperature 74 °F 79 °F 92 °F (1978)
Min Temperature 47 °F 51 °F 36 °F (2004)
Degree Days  
Heating Degree Days 4 2  
Month to date heating degree days 10 22  
Since 1 June heating degree days 362 303  
Since 1 July heating degree days 89 83  
Cooling Degree Days 0 2  
Month to date cooling degree days 10 22  
Year to date cooling degree days 100 129  
Since 1 June cooling degree days 96 128  
Growing Degree Days 10 (Base 50)    
Moisture  
Dew Point 48 °F    
Average Humidity 65    
Maximum Humidity 86    
Minimum Humidity 44    
Precipitation  
Precipitation 0.00 in 0.07 in 1.38 in (2013)
Month to date precipitation 1.52 0.74  
Year to date precipitation 14.13 13.51  
Sea Level Pressure  
Sea Level Pressure 30.23 in    
Wind  
Wind Speed 4 mph (NE)    
Max Wind Speed 13 mph    
Max Gust Speed 16 mph    
Visibility 10 miles    
Events      
T = Trace of Precipitation, MM = Missing Value Source: NWS Daily Summary

Daily Weather History Graph

Daily Weather History Graph

Search for Another Location

Airport or City:

Trip Planner

Search our weather history database for the weather conditions in past years. The results will help you decide how hot, cold, wet, or windy it might be!

Date:

Astronomy

Aug. 11, 2014 Rise Set
Actual Time 5:54 AM MDT 8:04 PM MDT
Civil Twilight 5:22 AM MDT 8:35 PM MDT
Nautical Twilight 4:43 AM MDT 9:14 PM MDT
Astronomical Twilight 4:00 AM MDT 9:57 PM MDT
Moon 8:28 PM MDT (8/11) 7:06 AM MDT (8/11)
Length of Visible Light 15h 12m
Length of Day
14h 09m
Full, 98% of the Moon is Illuminated
Aug 11
Full
Aug 17
Last Quarter
Aug 25
New
Sep 2
First Quarter
Sep 8
Full

Hourly Weather History & Observations

Time (MDT) Temp. Dew Point Humidity Pressure Visibility Wind Dir Wind Speed Gust Speed Precip Events Conditions
12:53 AM 55.0 °F 45.0 °F 69% 30.24 in 10.0 mi NE 3.5 mph - N/A   Clear
1:53 AM 51.1 °F 45.0 °F 80% 30.25 in 10.0 mi Calm Calm - N/A   Clear
2:53 AM 48.9 °F 44.1 °F 83% 30.26 in 10.0 mi NNW 4.6 mph - N/A   Clear
3:53 AM 48.0 °F 43.0 °F 83% 30.26 in 10.0 mi NW 3.5 mph - N/A   Clear
4:53 AM 48.0 °F 43.0 °F 83% 30.24 in 10.0 mi WNW 4.6 mph - N/A   Scattered Clouds
5:53 AM 48.0 °F 43.0 °F 83% 30.25 in 10.0 mi NNW 3.5 mph - N/A   Clear
6:53 AM 51.1 °F 45.0 °F 80% 30.25 in 10.0 mi NNW 5.8 mph - N/A   Mostly Cloudy
7:53 AM 55.9 °F 50.0 °F 80% 30.25 in 10.0 mi Calm Calm - N/A   Overcast
8:53 AM 61.0 °F 51.1 °F 70% 30.25 in 10.0 mi Calm Calm - N/A   Overcast
9:53 AM 66.9 °F 51.1 °F 57% 30.24 in 10.0 mi Calm Calm - N/A   Unknown
10:53 AM 71.1 °F 52.0 °F 51% 30.23 in 10.0 mi Calm Calm - N/A   Overcast
11:53 AM 71.1 °F 52.0 °F 51% 30.22 in 10.0 mi Calm Calm - N/A   Partly Cloudy
12:53 PM 71.1 °F 52.0 °F 51% 30.21 in 10.0 mi East 9.2 mph - N/A   Mostly Cloudy
2:53 PM 71.1 °F 51.1 °F 49% 30.22 in 10.0 mi Variable 5.8 mph - N/A   Clear
3:53 PM 70.0 °F 51.1 °F 51% 30.22 in 10.0 mi East 9.2 mph - N/A   Mostly Cloudy
4:53 PM 71.1 °F 48.9 °F 45% 30.21 in 10.0 mi East 10.4 mph - N/A   Mostly Cloudy
5:53 PM 70.0 °F 48.9 °F 47% 30.21 in 10.0 mi East 8.1 mph - N/A   Overcast
6:53 PM 68.0 °F 48.9 °F 50% 30.19 in 10.0 mi East 10.4 mph - N/A   Clear
7:53 PM 63.0 °F 50.0 °F 63% 30.19 in 10.0 mi ENE 6.9 mph - N/A   Clear
8:53 PM 61.0 °F 48.0 °F 62% 30.20 in 10.0 mi ENE 6.9 mph - N/A   Clear
9:53 PM 57.9 °F 48.0 °F 70% 30.19 in 10.0 mi Calm Calm - N/A   Clear
10:53 PM 57.0 °F 48.0 °F 72% 30.19 in 10.0 mi East 4.6 mph - N/A   Clear
11:53 PM 53.1 °F 46.9 °F 80% 30.21 in 10.0 mi Calm Calm - N/A   Clear